BADR-B

Last updated on Wed Apr 06 2016 10:37:55 GMT+0100 (British Summer Time)

1 27003U 01056C 16097.01842983 -.00000028 00000-0 16274-4 0 9997 2 27003 99.2837 245.0319 0020690 33.6732 326.5725 13.70215159716230
UTC large
Height (km)
Speed (km/s)
/
Latitude / Longitude
Inclination (degrees)
Orbital Period (minutes)
Azimuth
Elevation
Range (km)
Doppler Factor

Next 0 passes for location: London (51.5072 / 0.1276)

Sorry there are no passes over London.